Location: Aufkirchen
(47.9603°N, 11.3653°E)
Time: 16:18:44
(UTC+01:00)

Transit 2A - Pass Details

Date: 30 November 2020
Orbit: 599 x 960 km, 66.7° (Epoch: 26 January)

Event Time Altitude Azimuth Distance (km) Brightness Sun altitude
Rises 19:16:44 0° 257° (WSW) 3,609 10.7 -28.1°
Reaches altitude 10° 19:19:49 10° 270° (W) 2,635 9.7 -28.6°
Maximum altitude 19:24:49 25° 324° (NW) 1,714 8.1 -29.5°
Enters shadow 19:27:06 20° 357° (N) 1,905 8.0 -29.8°
Drops below altitude 10° 19:29:34 10° 20° (NNE) 2,479 - -30.3°
Sets 19:32:23 0° 33° (NNE) 3,353 - -30.7°
